Location: *
(49.9853°N, 3.5569°E)
Time: 22:25:29
(UTC+00:00)

Cosmos 2056 Rocket - Pass Details

Date: 22 September 2019
Orbit: 743 x 800 km, 74.0° (Epoch: 21 October)

Event Time Altitude Azimuth Distance (km) Brightness Sun altitude
Rises 19:06:25 0° 196° (SSW) 3,296 6.8 -13.8°
Reaches altitude 10° 19:08:49 10° 194° (SSW) 2,370 6.0 -14.1°
Maximum altitude 19:14:12 74° 111° (ESE) 832 3.5 -15.0°
Drops below altitude 10° 19:19:35 10° 27° (NNE) 2,369 6.0 -15.8°
Sets 19:21:59 0° 26° (NNE) 3,295 6.7 -16.1°
